| time (UTC) | temp C | wind direction | speed KPH | gust KPH | rain 1hr cm | rain 24hr cm | rain mn cm | humidity % | barometer mb |
| 20260504110348 | 3 | 287 | 0.0 | 0.0 | 0.00 | 0.00 | 0.00 | 88 | 1013.3 |
| 20260504100335 | 3 | 287 | 0.0 | 0.0 | 0.00 | 0.00 | 0.00 | 85 | 1013.2 |
| 20260504081838 | 4 | 286 | 0.0 | 0.0 | 0.00 | 0.00 | 0.00 | 83 | 1013.4 |
| 20260504081335 | 4 | 286 | 0.0 | 0.0 | 0.00 | 0.00 | 0.00 | 83 | 1013.4 |
| 20260504080831 | 4 | 286 | 0.0 | 0.0 | 0.00 | 0.00 | 0.00 | 82 | 1013.4 |
| 20260504080327 | 4 | 286 | 0.0 | 0.0 | 0.00 | 0.00 | 0.00 | 82 | 1013.4 |
| 20260504070322 | 5 | 286 | 0.0 | 0.0 | 0.00 | 0.00 | 0.00 | 81 | 1013.2 |
| 20260504050333 | 6 | 286 | 0.0 | 0.0 | 0.00 | 0.00 | 0.00 | 76 | 1013.3 |
| 20260504045841 | 6 | 286 | 0.0 | 0.0 | 0.00 | 0.00 | 0.00 | 78 | 1013.2 |
| 20260504045337 | 6 | 286 | 0.0 | 0.0 | 0.00 | 0.00 | 0.00 | 76 | 1013.2 |
| 20260504044832 | 6 | 286 | 0.0 | 0.0 | 0.00 | 0.00 | 0.00 | 74 | 1013.3 |
| 20260504044329 | 6 | 286 | 0.0 | 0.0 | 0.00 | 0.00 | 0.00 | 74 | 1013.3 |
| 20260504043822 | 6 | 286 | 0.0 | 0.0 | 0.00 | 0.00 | 0.00 | 74 | 1013.3 |
| 20260504043325 | 6 | 286 | 0.0 | 0.0 | 0.00 | 0.00 | 0.00 | 75 | 1013.3 |
| 20260504042825 | 6 | 286 | 0.0 | 0.0 | 0.00 | 0.00 | 0.00 | 72 | 1013.2 |
| 20260504042338 | 6 | 286 | 0.0 | 0.0 | 0.00 | 0.00 | 0.00 | 72 | 1013.2 |
| 20260504041842 | 6 | 286 | 0.0 | 0.0 | 0.00 | 0.00 | 0.00 | 71 | 1013.2 |
| 20260504041338 | 6 | 286 | 0.0 | 0.0 | 0.00 | 0.00 | 0.00 | 71 | 1013.2 |
| 20260504040834 | 7 | 286 | 0.0 | 0.0 | 0.00 | 0.00 | 0.00 | 71 | 1013.1 |
| 20260504040333 | 7 | 286 | 0.0 | 0.0 | 0.00 | 0.00 | 0.00 | 70 | 1013.1 |
| 20260504035858 | 7 | 286 | 0.0 | 0.0 | 0.00 | 0.00 | 0.00 | 69 | 1013.0 |
| 20260504035334 | 7 | 286 | 0.0 | 0.0 | 0.00 | 0.00 | 0.00 | 70 | 1012.9 |
| 20260504034830 | 7 | 286 | 0.0 | 0.0 | 0.00 | 0.00 | 0.00 | 70 | 1012.8 |
| 20260504034351 | 7 | 286 | 0.0 | 0.0 | 0.00 | 0.00 | 0.00 | 69 | 1012.7 |
| 20260504033851 | 7 | 286 | 0.0 | 0.0 | 0.00 | 0.00 | 0.00 | 69 | 1012.6 |
| 20260504033334 | 7 | 286 | 0.0 | 0.0 | 0.00 | 0.00 | 0.00 | 70 | 1012.6 |
| 20260504032829 | 7 | 286 | 0.0 | 0.0 | 0.00 | 0.00 | 0.00 | 70 | 1012.6 |
| 20260504032351 | 7 | 286 | 0.0 | 0.0 | 0.00 | 0.00 | 0.00 | 68 | 1012.6 |
| 20260504031834 | 7 | 286 | 0.0 | 0.0 | 0.00 | 0.00 | 0.00 | 68 | 1012.6 |
| 20260504031328 | 7 | 286 | 0.0 | 0.0 | 0.00 | 0.00 | 0.00 | 68 | 1012.6 |
| 20260504030857 | 7 | 286 | 0.0 | 0.0 | 0.00 | 0.00 | 0.00 | 69 | 1012.5 |
| 20260504030336 | 7 | 286 | 0.0 | 0.0 | 0.00 | 0.00 | 0.00 | 68 | 1012.5 |
| 20260504025829 | 8 | 286 | 0.0 | 0.0 | 0.00 | 0.00 | 0.00 | 67 | 1012.5 |
| 20260504025325 | 8 | 286 | 0.0 | 0.0 | 0.00 | 0.00 | 0.00 | 68 | 1012.5 |
| 20260504024849 | 8 | 286 | 0.0 | 0.0 | 0.00 | 0.00 | 0.00 | 68 | 1012.5 |
| 20260504024324 | 8 | 286 | 0.0 | 0.0 | 0.00 | 0.00 | 0.00 | 67 | 1012.5 |
| 20260504023820 | 8 | 286 | 0.0 | 0.0 | 0.00 | 0.00 | 0.00 | 66 | 1012.5 |
| 20260504023337 | 8 | 286 | 0.0 | 0.0 | 0.00 | 0.00 | 0.00 | 65 | 1012.5 |
| 20260504022833 | 8 | 286 | 0.0 | 0.0 | 0.00 | 0.00 | 0.00 | 65 | 1012.6 |
| 20260504022345 | 8 | 286 | 0.0 | 0.0 | 0.00 | 0.00 | 0.00 | 66 | 1012.6 |
| 20260504021841 | 8 | 286 | 0.0 | 0.0 | 0.00 | 0.00 | 0.00 | 65 | 1012.6 |
| 20260504021339 | 8 | 286 | 0.0 | 0.0 | 0.00 | 0.00 | 0.00 | 65 | 1012.5 |
| 20260504020836 | 8 | 286 | 0.0 | 0.0 | 0.00 | 0.00 | 0.00 | 64 | 1012.5 |
| 20260504020332 | 8 | 286 | 0.0 | 0.0 | 0.00 | 0.00 | 0.00 | 67 | 1012.5 |
| 20260504015824 | 8 | 286 | 0.0 | 0.0 | 0.00 | 0.00 | 0.00 | 65 | 1012.5 |
| 20260504015328 | 8 | 286 | 0.0 | 0.0 | 0.00 | 0.00 | 0.00 | 64 | 1012.5 |
| 20260504014825 | 8 | 286 | 0.0 | 0.0 | 0.00 | 0.00 | 0.00 | 65 | 1012.5 |
| 20260504014339 | 8 | 286 | 0.0 | 0.0 | 0.00 | 0.00 | 0.00 | 64 | 1012.5 |
| 20260504013843 | 9 | 286 | 0.0 | 0.0 | 0.00 | 0.00 | 0.00 | 64 | 1012.4 |
| 20260504013339 | 9 | 286 | 0.0 | 0.0 | 0.00 | 0.00 | 0.00 | 64 | 1012.5 |
| 20260504012837 | 9 | 286 | 0.0 | 0.0 | 0.00 | 0.00 | 0.00 | 63 | 1012.5 |
| 20260504012333 | 9 | 286 | 0.0 | 0.0 | 0.00 | 0.00 | 0.00 | 64 | 1012.5 |
| 20260504011829 | 9 | 286 | 0.0 | 0.0 | 0.00 | 0.00 | 0.00 | 65 | 1012.4 |
| 20260504011334 | 9 | 286 | 0.0 | 0.0 | 0.00 | 0.00 | 0.00 | 65 | 1012.4 |
| 20260504010828 | 10 | 287 | 0.0 | 0.0 | 0.00 | 0.00 | 0.00 | 63 | 1012.3 |
| 20260504010321 | 10 | 287 | 0.0 | 0.0 | 0.00 | 0.00 | 0.00 | 63 | 1012.3 |
| 20260504005821 | 10 | 287 | 0.0 | 0.0 | 0.00 | 0.00 | 0.00 | 62 | 1012.1 |
| 20260504005339 | 10 | 287 | 0.0 | 0.0 | 0.00 | 0.00 | 0.00 | 62 | 1012.2 |
| 20260504004832 | 10 | 287 | 0.0 | 0.0 | 0.00 | 0.00 | 0.00 | 61 | 1012.1 |
| 20260504004337 | 10 | 287 | 0.0 | 0.0 | 0.00 | 0.00 | 0.00 | 60 | 1012.1 |
| 20260504003833 | 11 | 287 | 0.0 | 0.0 | 0.00 | 0.00 | 0.00 | 60 | 1012.0 |
| 20260504003330 | 11 | 287 | 0.0 | 0.0 | 0.00 | 0.00 | 0.00 | 59 | 1011.9 |
| 20260504002827 | 11 | 287 | 0.0 | 0.0 | 0.00 | 0.00 | 0.00 | 58 | 1011.9 |
| 20260504002332 | 11 | 287 | 0.0 | 0.0 | 0.00 | 0.00 | 0.00 | 58 | 1011.7 |
| 20260504001825 | 11 | 287 | 0.0 | 0.0 | 0.00 | 0.00 | 0.00 | 55 | 1011.7 |
| 20260504001349 | 11 | 287 | 0.0 | 0.0 | 0.00 | 0.00 | 0.00 | 54 | 1011.6 |
| 20260504000825 | 12 | 287 | 0.0 | 0.0 | 0.00 | 0.00 | 0.00 | 55 | 1011.6 |
| 20260504000351 | 12 | 286 | 0.0 | 0.0 | 0.00 | 0.00 | 0.00 | 54 | 1011.6 |
| 20260503235821 | 12 | 286 | 0.0 | 0.0 | 0.00 | 0.00 | 0.00 | 53 | 1011.5 |
| 20260503235345 | 12 | 286 | 0.0 | 0.0 | 0.00 | 0.00 | 0.00 | 55 | 1011.5 |
| 20260503234820 | 13 | 286 | 0.0 | 0.0 | 0.00 | 0.00 | 0.00 | 54 | 1011.4 |
| 20260503234407 | 13 | 315 | 0.0 | 0.0 | 0.00 | 0.00 | 0.00 | 54 | 1011.4 |
| 20260503233843 | 13 | 170 | 0.0 | 0.0 | 0.00 | 0.00 | 0.00 | 53 | 1011.3 |
| 20260503233338 | 13 | 240 | 0.0 | 0.0 | 0.00 | 0.00 | 0.00 | 52 | 1011.4 |
| 20260503232834 | 14 | 240 | 0.0 | 0.0 | 0.00 | 0.00 | 0.00 | 50 | 1011.3 |
| 20260503232329 | 14 | 240 | 0.0 | 0.0 | 0.00 | 0.00 | 0.00 | 47 | 1011.2 |
| 20260503231849 | 14 | 17 | 0.0 | 0.0 | 0.00 | 0.00 | 0.00 | 46 | 1011.1 |
| 20260503231323 | 15 | 57 | 0.0 | 0.0 | 0.00 | 0.00 | 0.00 | 47 | 1011.1 |
| 20260503230837 | 15 | 63 | 0.0 | 0.0 | 0.00 | 0.00 | 0.00 | 44 | 1011.2 |
| 20260503230341 | 15 | 277 | 0.0 | 0.0 | 0.00 | 0.00 | 0.00 | 39 | 1011.2 |
| 20260503225854 | 15 | 273 | 1.6 | 0.0 | 0.00 | 0.00 | 0.00 | 39 | 1011.1 |
| 20260503225401 | 16 | 261 | 1.6 | 0.0 | 0.00 | 0.00 | 0.00 | 39 | 1011.1 |
| 20260503224835 | 16 | 318 | 1.6 | 0.0 | 0.00 | 0.00 | 0.00 | 38 | 1011.0 |
| 20260503224332 | 16 | 309 | 1.6 | 0.0 | 0.00 | 0.00 | 0.00 | 37 | 1011.0 |
| 20260503223832 | 16 | 355 | 1.6 | 0.0 | 0.00 | 0.00 | 0.00 | 41 | 1010.9 |
| 20260503223327 | 16 | 286 | 1.6 | 0.0 | 0.00 | 0.00 | 0.00 | 38 | 1010.8 |
| 20260503222828 | 16 | 288 | 1.6 | 0.0 | 0.00 | 0.00 | 0.00 | 37 | 1010.9 |
| 20260503222326 | 16 | 262 | 0.0 | 0.0 | 0.00 | 0.00 | 0.00 | 37 | 1010.9 |
| 20260503221851 | 16 | 319 | 0.0 | 0.0 | 0.00 | 0.00 | 0.00 | 41 | 1010.9 |
| 20260503221324 | 16 | 257 | 0.0 | 0.0 | 0.00 | 0.00 | 0.00 | 39 | 1011.0 |
| 20260503220821 | 16 | 318 | 0.0 | 0.0 | 0.00 | 0.00 | 0.00 | 40 | 1011.0 |
| 20260503220334 | 16 | 283 | 0.0 | 0.0 | 0.00 | 0.00 | 0.00 | 42 | 1011.0 |
| 20260503215842 | 16 | 294 | 1.6 | 0.0 | 0.00 | 0.00 | 0.00 | 37 | 1011.1 |
| 20260503215358 | 17 | 330 | 1.6 | 0.0 | 0.00 | 0.00 | 0.00 | 37 | 1011.1 |
| 20260503214833 | 17 | 234 | 1.6 | 0.0 | 0.00 | 0.00 | 0.00 | 35 | 1010.9 |
| 20260503214342 | 17 | 327 | 1.6 | 0.0 | 0.00 | 0.00 | 0.00 | 37 | 1011.0 |
| 20260503213837 | 16 | 16 | 1.6 | 0.0 | 0.00 | 0.00 | 0.00 | 38 | 1011.0 |
| 20260503213330 | 16 | 25 | 1.6 | 0.0 | 0.00 | 0.00 | 0.00 | 40 | 1010.9 |
| 20260503212826 | 16 | 281 | 1.6 | 0.0 | 0.00 | 0.00 | 0.00 | 36 | 1010.9 |
| 20260503212350 | 16 | 317 | 1.6 | 0.0 | 0.00 | 0.00 | 0.00 | 38 | 1010.9 |
| 20260503211823 | 16 | 46 | 1.6 | 0.0 | 0.00 | 0.00 | 0.00 | 40 | 1010.8 |
| 20260503211346 | 16 | 273 | 1.6 | 0.0 | 0.00 | 0.00 | 0.00 | 39 | 1010.9 |
| 20260503210843 | 16 | 278 | 1.6 | 0.0 | 0.00 | 0.00 | 0.00 | 39 | 1010.9 |
| 20260503210340 | 16 | 303 | 1.6 | 0.0 | 0.00 | 0.00 | 0.00 | 39 | 1010.8 |
| 20260503205836 | 16 | 360 | 1.6 | 0.0 | 0.00 | 0.00 | 0.00 | 40 | 1010.8 |
| 20260503205333 | 16 | 12 | 1.6 | 0.0 | 0.00 | 0.00 | 0.00 | 38 | 1010.8 |
| 20260503204841 | 16 | 292 | 1.6 | 0.0 | 0.00 | 0.00 | 0.00 | 37 | 1010.7 |
| 20260503204354 | 16 | 286 | 1.6 | 0.0 | 0.00 | 0.00 | 0.00 | 35 | 1010.8 |
| 20260503203832 | 16 | 230 | 1.6 | 0.0 | 0.00 | 0.00 | 0.00 | 39 | 1011.0 |
| 20260503203359 | 16 | 16 | 1.6 | 0.0 | 0.00 | 0.00 | 0.00 | 38 | 1010.9 |
| 20260503202835 | 15 | 277 | 1.6 | 0.0 | 0.00 | 0.00 | 0.00 | 38 | 1011.0 |
| 20260503202333 | 15 | 326 | 1.6 | 0.0 | 0.00 | 0.00 | 0.00 | 37 | 1010.9 |
| 20260503201833 | 15 | 313 | 1.6 | 0.0 | 0.00 | 0.00 | 0.00 | 36 | 1011.1 |
| 20260503201330 | 16 | 323 | 1.6 | 0.0 | 0.00 | 0.00 | 0.00 | 35 | 1011.1 |
| 20260503200834 | 16 | 302 | 1.6 | 0.0 | 0.00 | 0.00 | 0.00 | 39 | 1011.2 |
| 20260503200348 | 15 | 5 | 1.6 | 0.0 | 0.00 | 0.00 | 0.00 | 40 | 1011.1 |
| 20260503195831 | 15 | 316 | 3.2 | 0.0 | 0.00 | 0.00 | 0.00 | 39 | 1011.2 |
| 20260503195326 | 15 | 296 | 3.2 | 0.0 | 0.00 | 0.00 | 0.00 | 36 | 1011.2 |
| 20260503194838 | 15 | 274 | 1.6 | 0.0 | 0.00 | 0.00 | 0.00 | 39 | 1011.4 |
| 20260503194341 | 15 | 15 | 3.2 | 0.0 | 0.00 | 0.00 | 0.00 | 39 | 1011.5 |
| 20260503193858 | 15 | 281 | 3.2 | 0.0 | 0.00 | 0.00 | 0.00 | 39 | 1011.6 |
| 20260503193333 | 15 | 275 | 1.6 | 0.0 | 0.00 | 0.00 | 0.00 | 38 | 1011.7 |
| 20260503192837 | 15 | 304 | 0.0 | 0.0 | 0.00 | 0.00 | 0.00 | 44 | 1011.8 |
| 20260503192333 | 15 | 5 | 1.6 | 0.0 | 0.00 | 0.00 | 0.00 | 41 | 1011.7 |
| 20260503191830 | 15 | 341 | 1.6 | 0.0 | 0.00 | 0.00 | 0.00 | 42 | 1011.8 |
| 20260503191354 | 15 | 326 | 3.2 | 0.0 | 0.00 | 0.00 | 0.00 | 40 | 1011.7 |
| 20260503190827 | 15 | 306 | 3.2 | 0.0 | 0.00 | 0.00 | 0.00 | 40 | 1011.9 |
| 20260503190323 | 15 | 291 | 3.2 | 0.0 | 0.00 | 0.00 | 0.00 | 45 | 1011.8 |
| 20260503185844 | 15 | 315 | 3.2 | 0.0 | 0.00 | 0.00 | 0.00 | 42 | 1011.8 |
| 20260503185321 | 15 | 248 | 4.8 | 0.0 | 0.00 | 0.00 | 0.00 | 40 | 1012.0 |
| 20260503184837 | 15 | 321 | 4.8 | 0.0 | 0.00 | 0.00 | 0.00 | 35 | 1012.1 |
| 20260503184333 | 15 | 339 | 3.2 | 0.0 | 0.00 | 0.00 | 0.00 | 40 | 1012.1 |
| 20260503183832 | 15 | 313 | 4.8 | 0.0 | 0.00 | 0.00 | 0.00 | 42 | 1012.3 |
| 20260503183356 | 14 | 255 | 3.2 | 0.0 | 0.00 | 0.00 | 0.00 | 41 | 1012.3 |
| 20260503182832 | 14 | 251 | 3.2 | 0.0 | 0.00 | 0.00 | 0.00 | 42 | 1012.5 |
| 20260503182332 | 14 | 69 | 3.2 | 0.0 | 0.00 | 0.00 | 0.00 | 41 | 1012.2 |
| 20260503181837 | 14 | 278 | 4.8 | 0.0 | 0.00 | 0.00 | 0.00 | 43 | 1012.4 |
| 20260503181334 | 14 | 351 | 4.8 | 0.0 | 0.00 | 0.00 | 0.00 | 41 | 1012.3 |
| 20260503180846 | 14 | 355 | 4.8 | 0.0 | 0.00 | 0.00 | 0.00 | 41 | 1012.5 |
| 20260503180349 | 14 | 355 | 4.8 | 0.0 | 0.00 | 0.00 | 0.00 | 44 | 1012.5 |
| 20260503175825 | 13 | 338 | 4.8 | 0.0 | 0.00 | 0.00 | 0.00 | 40 | 1012.5 |
| 20260503175350 | 13 | 290 | 4.8 | 0.0 | 0.00 | 0.00 | 0.00 | 41 | 1012.6 |
| 20260503174822 | 13 | 47 | 3.2 | 0.0 | 0.00 | 0.00 | 0.00 | 43 | 1012.6 |
| 20260503174325 | 13 | 342 | 3.2 | 0.0 | 0.00 | 0.00 | 0.00 | 42 | 1012.6 |
| 20260503173822 | 13 | 309 | 3.2 | 0.0 | 0.00 | 0.00 | 0.00 | 43 | 1012.8 |
| 20260503173346 | 13 | 257 | 3.2 | 0.0 | 0.00 | 0.00 | 0.00 | 44 | 1012.7 |
| 20260503172823 | 13 | 339 | 4.8 | 0.0 | 0.00 | 0.00 | 0.00 | 41 | 1012.8 |
| 20260503172335 | 13 | 336 | 3.2 | 0.0 | 0.00 | 0.00 | 0.00 | 46 | 1012.9 |
| 20260503171831 | 13 | 293 | 3.2 | 0.0 | 0.00 | 0.00 | 0.00 | 44 | 1012.9 |
| 20260503171402 | 13 | 312 | 3.2 | 0.0 | 0.00 | 0.00 | 0.00 | 44 | 1013.0 |
| 20260503170842 | 13 | 342 | 1.6 | 0.0 | 0.00 | 0.00 | 0.00 | 45 | 1012.9 |
| 20260503170338 | 13 | 267 | 3.2 | 0.0 | 0.00 | 0.00 | 0.00 | 43 | 1012.9 |
| 20260503150833 | 10 | 278 | 1.6 | 0.0 | 0.00 | 0.00 | 0.00 | 52 | 1013.5 |
| 20260503150322 | 10 | 328 | 1.6 | 0.0 | 0.00 | 0.00 | 0.00 | 52 | 1013.5 |
| 20260503131343 | 8 | 325 | 4.8 | 0.0 | 0.00 | 0.00 | 0.00 | 61 | 1013.8 |
| 20260503130839 | 8 | 5 | 4.8 | 0.0 | 0.00 | 0.00 | 0.00 | 61 | 1013.8 |
| 20260503130334 | 7 | 333 | 3.2 | 0.0 | 0.00 | 0.00 | 0.00 | 61 | 1013.9 |